,,,PA_Meas_PMT16A,,PR_Meas_QMR101_102,,RH_Meas_QMH101,,SR_Meas_QMS101,,TA_Meas_QMH101,,GenWind,,GenWind,
date,time,status,PA,status,PR,status,RH,status,SR,status,TA,status,DirAvg,status,SpdAvg,
2011-10-04, 00:00:04,VALID,1005.47,VALID,0,VALID,92.2789,VALID,0,VALID,24.4238,VALID,348,VALID,0.822656,
2011-10-04, 00:01:04,VALID,1005.47,VALID,0,VALID,92.0958,VALID,0,VALID,24.4238,VALID,348,VALID,0.739453,
2011-10-04, 00:02:04,VALID,1005.45,VALID,0,VALID,91.7297,VALID,0,VALID,24.4238,VALID,349,VALID,0.885156,
2011-10-04, 00:03:04,VALID,1005.41,VALID,0,VALID,91.4092,VALID,0.0815089,VALID,24.3793,VALID,350,VALID,0.748438,
2011-10-04, 00:04:04,VALID,1005.4,VALID,0,VALID,91.4779,VALID,0.0815089,VALID,24.4414,VALID,350,VALID,0.669141,
2011-10-04, 00:05:04,VALID,1005.39,VALID,0,VALID,91.5466,VALID,0.0815089,VALID,24.4414,VALID,350,VALID,0.558594,
2011-10-04, 00:06:04,VALID,1005.36,VALID,0,VALID,91.4398,VALID,0.0815089,VALID,24.4183,VALID,350,VALID,0.5375,
2011-10-04, 00:07:04,VALID,1005.35,VALID,0,VALID,91.333,VALID,0.0815089,VALID,24.4396,VALID,354,VALID,0.466797,
2011-10-04, 00:08:04,VALID,1005.33,VALID,0,VALID,91.4474,VALID,0.0815089,VALID,24.4609,VALID,355,VALID,0.465234,
2011-10-04, 00:09:04,VALID,1005.32,VALID,0,VALID,91.6305,VALID,0.0815089,VALID,24.4006,VALID,355,VALID,0.372266,
2011-10-04, 00:10:04,VALID,1005.32,VALID,0,VALID,91.6991,VALID,0.0815089,VALID,24.3812,VALID,355,VALID,0.244141,
2011-10-04, 00:11:04,VALID,1005.33,VALID,0,VALID,91.7525,VALID,0.0815089,VALID,24.3422,VALID,355,VALID,0.0359375,
2011-10-04, 00:12:04,VALID,1005.31,VALID,0,VALID,91.9128,VALID,0.0815089,VALID,24.3422,VALID,355,VALID,0.0925781,
2011-10-04, 00:13:04,VALID,1005.31,VALID,0,VALID,91.9814,VALID,0.0815089,VALID,24.3246,VALID,355,VALID,0.00664063,
2011-10-04, 00:14:04,VALID,1005.28,VALID,0,VALID,92.073,VALID,0.0815089,VALID,24.3033,VALID,355,VALID,0,
2011-10-04, 00:15:04,VALID,1005.29,VALID,0,VALID,92.2561,VALID,0.0815089,VALID,24.2839,VALID,355,VALID,0,
2011-10-04, 00:16:04,VALID,1005.27,VALID,0,VALID,92.073,VALID,0.163018,VALID,24.2644,VALID,355,VALID,0.0742188,
2011-10-04, 00:17:04,VALID,1005.26,VALID,0,VALID,92.0501,VALID,0.0815089,VALID,24.2449,VALID,357,VALID,0.363672,
2011-10-04, 00:18:04,VALID,1005.25,VALID,0,VALID,92.2255,VALID,0.0815089,VALID,24.2255,VALID,53,VALID,0.244141,
2011-10-04, 00:19:04,VALID,1005.23,VALID,0,VALID,92.3934,VALID,0.0815089,VALID,24.2255,VALID,53,VALID,0.0238281,
2011-10-04, 00:20:04,VALID,1005.2,VALID,0,VALID,92.4315,VALID,0.0815089,VALID,24.2078,VALID,53,VALID,0.264844,
2011-10-04, 00:21:04,VALID,1005.17,VALID,0,VALID,92.5078,VALID,0.0815089,VALID,24.2078,VALID,53,VALID,0.15,
2011-10-04, 00:22:04,VALID,1005.15,VALID,0,VALID,92.6146,VALID,0.0815089,VALID,24.1671,VALID,53,VALID,0.125,
2011-10-04, 00:23:04,VALID,1005.16,VALID,0,VALID,92.4773,VALID,0.0815089,VALID,24.1689,VALID,53,VALID,0.25625,
2011-10-04, 00:24:04,VALID,1005.11,VALID,0,VALID,92.4925,VALID,0.0815089,VALID,24.1494,VALID,53,VALID,0.278906,
2011-10-04, 00:25:04,VALID,1005.13,VALID,0,VALID,92.5612,VALID,0.0815089,VALID,24.1087,VALID,53,VALID,0.137891,
2011-10-04, 00:26:04,VALID,1005.08,VALID,0,VALID,92.6299,VALID,0.0815089,VALID,24.1105,VALID,53,VALID,0.0917969,
2011-10-04, 00:27:04,VALID,1005.11,VALID,0,VALID,92.8587,VALID,0,VALID,24.091,VALID,53,VALID,0.383984,
2011-10-04, 00:28:04,VALID,1005.06,VALID,0,VALID,92.9884,VALID,0.0815089,VALID,24.0716,VALID,53,VALID,0.344141,
2011-10-04, 00:29:04,VALID,1005.03,VALID,0,VALID,93.0723,VALID,0.0815089,VALID,24.0697,VALID,46,VALID,0.417578,
2011-10-04, 00:30:04,VALID,1005.03,VALID,0,VALID,93.1181,VALID,0.0815089,VALID,24.0521,VALID,46,VALID,0.130078,
2011-10-04, 00:31:04,VALID,1005,VALID,0,VALID,93.1486,VALID,0.0815089,VALID,24.0503,VALID,46,VALID,0.0210938,
2011-10-04, 00:32:04,VALID,1005,VALID,0,VALID,93.2249,VALID,0.0815089,VALID,24.0503,VALID,46,VALID,0,
2011-10-04, 00:33:04,VALID,1004.97,VALID,0,VALID,93.2936,VALID,0,VALID,24.0734,VALID,46,VALID,0.2625,
2011-10-04, 00:34:04,VALID,1004.98,VALID,0,VALID,93.2707,VALID,0.0815089,VALID,24.0716,VALID,46,VALID,0.196875,
2011-10-04, 00:35:04,VALID,1004.95,VALID,0,VALID,93.2325,VALID,0,VALID,24.0308,VALID,46,VALID,0.240234,
2011-10-04, 00:36:04,VALID,1004.89,VALID,0,VALID,93.1715,VALID,0,VALID,24.0716,VALID,46,VALID,0.235938,
2011-10-04, 00:37:04,VALID,1004.93,VALID,0,VALID,93.2707,VALID,0.0815089,VALID,24.0521,VALID,46,VALID,0.267578,
2011-10-04, 00:38:04,VALID,1004.88,VALID,0,VALID,93.2631,VALID,0,VALID,24.0929,VALID,46,VALID,0.210938,
2011-10-04, 00:39:04,VALID,1004.85,VALID,0,VALID,93.2554,VALID,0,VALID,24.0716,VALID,46,VALID,0.236328,
2011-10-04, 00:40:04,VALID,1004.83,VALID,0,VALID,93.2859,VALID,0,VALID,24.091,VALID,46,VALID,0.00546875,
2011-10-04, 00:41:04,VALID,1004.78,VALID,0,VALID,93.2936,VALID,0,VALID,24.091,VALID,46,VALID,0.185156,
2011-10-04, 00:42:04,VALID,1004.77,VALID,0,VALID,93.3317,VALID,0,VALID,24.0716,VALID,46,VALID,0,
2011-10-04, 00:43:04,VALID,1004.73,VALID,0,VALID,93.2097,VALID,0,VALID,24.0114,VALID,46,VALID,0.0253906,
2011-10-04, 00:44:04,VALID,1004.72,VALID,0,VALID,93.1639,VALID,0,VALID,24.0326,VALID,46,VALID,0,
2011-10-04, 00:45:04,VALID,1004.7,VALID,0,VALID,93.2402,VALID,0,VALID,23.9937,VALID,46,VALID,0.187109,
2011-10-04, 00:46:04,VALID,1004.7,VALID,0,VALID,93.2859,VALID,0,VALID,23.9742,VALID,46,VALID,0.188672,
2011-10-04, 00:47:04,VALID,1004.68,VALID,0,VALID,93.3241,VALID,0,VALID,23.9335,VALID,46,VALID,0,
2011-10-04, 00:48:04,VALID,1004.69,VALID,0,VALID,93.3622,VALID,0,VALID,23.9353,VALID,46,VALID,0.000390625,
2011-10-04, 00:49:04,VALID,1004.63,VALID,0,VALID,93.4233,VALID,0,VALID,23.9159,VALID,46,VALID,0,
2011-10-04, 00:50:04,VALID,1004.66,VALID,0,VALID,93.4462,VALID,0,VALID,23.8964,VALID,46,VALID,0,
2011-10-04, 00:51:04,VALID,1004.66,VALID,0,VALID,93.5835,VALID,0,VALID,23.8964,VALID,46,VALID,0.00078125,
2011-10-04, 00:52:04,VALID,1004.65,VALID,0,VALID,93.6826,VALID,0,VALID,23.8769,VALID,46,VALID,0.301562,
2011-10-04, 00:53:04,VALID,1004.65,VALID,0,VALID,93.7666,VALID,0,VALID,23.8769,VALID,46,VALID,0.304688,
2011-10-04, 00:54:04,VALID,1004.66,VALID,0,VALID,93.8581,VALID,0,VALID,23.8769,VALID,46,VALID,0.350391,
2011-10-04, 00:55:04,VALID,1004.67,VALID,0,VALID,93.9954,VALID,0,VALID,23.8964,VALID,46,VALID,0.373437,
2011-10-04, 00:56:04,VALID,1004.69,VALID,0,VALID,93.9344,VALID,0.0815089,VALID,23.8964,VALID,46,VALID,0.346094,
2011-10-04, 00:57:04,VALID,1004.69,VALID,0,VALID,93.9649,VALID,0,VALID,23.8964,VALID,46,VALID,0.262109,
2011-10-04, 00:58:04,VALID,1004.71,VALID,0,VALID,94.0031,VALID,0,VALID,23.8769,VALID,46,VALID,0.247656,
2011-10-04, 00:59:04,VALID,1004.69,VALID,0,VALID,93.9954,VALID,0,VALID,23.8556,VALID,46,VALID,0.209766,
2011-10-04, 01:00:04,VALID,1004.67,VALID,0,VALID,93.9725,VALID,0,VALID,23.8769,VALID,46,VALID,0.025,
2011-10-04, 01:01:04,VALID,1004.68,VALID,0,VALID,93.9954,VALID,0,VALID,23.8575,VALID,46,VALID,0,
2011-10-04, 01:02:04,VALID,1004.69,VALID,0,VALID,94.0488,VALID,0,VALID,23.8769,VALID,46,VALID,0.00390625,
2011-10-04, 01:03:04,VALID,1004.67,VALID,0,VALID,93.9878,VALID,0,VALID,23.8769,VALID,46,VALID,0,
2011-10-04, 01:04:04,VALID,1004.65,VALID,0,VALID,93.9115,VALID,0,VALID,23.8769,VALID,46,VALID,0,
2011-10-04, 01:05:04,VALID,1004.65,VALID,0,VALID,94.0183,VALID,0,VALID,23.8769,VALID,46,VALID,0,
2011-10-04, 01:06:04,VALID,1004.63,VALID,0,VALID,94.0717,VALID,0,VALID,23.8769,VALID,46,VALID,0.203906,
2011-10-04, 01:07:04,VALID,1004.63,VALID,0,VALID,94.0336,VALID,0,VALID,23.8964,VALID,46,VALID,0.0207031,
2011-10-04, 01:08:04,VALID,1004.6,VALID,0,VALID,93.9954,VALID,0,VALID,23.8964,VALID,46,VALID,0.161328,
2011-10-04, 01:09:04,VALID,1004.56,VALID,0,VALID,94.0488,VALID,0,VALID,23.8751,VALID,46,VALID,0.428125,
2011-10-04, 01:10:04,VALID,1004.56,VALID,0,VALID,93.9039,VALID,0,VALID,23.8769,VALID,46,VALID,0.354297,
2011-10-04, 01:11:04,VALID,1004.53,VALID,0,VALID,93.8886,VALID,0,VALID,23.8362,VALID,46,VALID,0.169531,
2011-10-04, 01:12:04,VALID,1004.51,VALID,0,VALID,93.9191,VALID,0,VALID,23.838,VALID,46,VALID,0.388672,
2011-10-04, 01:13:04,VALID,1004.49,VALID,0,VALID,93.9725,VALID,0,VALID,23.8185,VALID,46,VALID,0.387109,
2011-10-04, 01:14:04,VALID,1004.49,VALID,0,VALID,93.9878,VALID,0,VALID,23.7973,VALID,46,VALID,0.335547,
2011-10-04, 01:15:04,VALID,1004.47,VALID,0,VALID,93.9497,VALID,0,VALID,23.7991,VALID,44,VALID,0.550781,
2011-10-04, 01:16:04,VALID,1004.47,VALID,0,VALID,94.0031,VALID,0,VALID,23.7991,VALID,6,VALID,0.636719,
2011-10-04, 01:17:04,VALID,1004.5,VALID,0,VALID,94.0717,VALID,0,VALID,23.7796,VALID,5,VALID,0.51875,
2011-10-04, 01:18:04,VALID,1004.49,VALID,0,VALID,94.1175,VALID,0,VALID,23.7389,VALID,2,VALID,0.539453,
2011-10-04, 01:19:04,VALID,1004.53,VALID,0,VALID,94.2472,VALID,0,VALID,23.8009,VALID,1,VALID,0.503906,
2011-10-04, 01:20:04,VALID,1004.53,VALID,0,VALID,94.2014,VALID,0,VALID,23.7601,VALID,345,VALID,0.592578,
2011-10-04, 01:21:04,VALID,1004.57,VALID,0,VALID,94.209,VALID,0,VALID,23.7212,VALID,346,VALID,0.665234,
2011-10-04, 01:22:04,VALID,1004.55,VALID,0,VALID,94.2701,VALID,0,VALID,23.7212,VALID,348,VALID,0.605469,
2011-10-04, 01:23:04,VALID,1004.56,VALID,0,VALID,94.3921,VALID,0,VALID,23.723,VALID,347,VALID,0.611719,
2011-10-04, 01:24:04,VALID,1004.56,VALID,0,VALID,94.4074,VALID,0,VALID,23.7017,VALID,348,VALID,0.726172,
2011-10-04, 01:25:04,VALID,1004.54,VALID,0,VALID,94.4761,VALID,0,VALID,23.723,VALID,348,VALID,0.491016,
2011-10-04, 01:26:04,VALID,1004.54,VALID,0,VALID,94.4761,VALID,0,VALID,23.7017,VALID,348,VALID,0.485938,
2011-10-04, 01:27:04,VALID,1004.52,VALID,0,VALID,94.5218,VALID,0,VALID,23.7017,VALID,348,VALID,0.538281,
2011-10-04, 01:28:04,VALID,1004.54,VALID,0,VALID,94.5905,VALID,0,VALID,23.7017,VALID,348,VALID,0.476172,
2011-10-04, 01:29:04,VALID,1004.5,VALID,0,VALID,94.6439,VALID,0,VALID,23.7212,VALID,348,VALID,0.429297,
2011-10-04, 01:30:04,VALID,1004.51,VALID,0,VALID,94.6286,VALID,0,VALID,23.7212,VALID,348,VALID,0.417578,
2011-10-04, 01:31:04,VALID,1004.47,VALID,0,VALID,94.6591,VALID,0,VALID,23.7,VALID,348,VALID,0.443359,
2011-10-04, 01:32:04,VALID,1004.48,VALID,0,VALID,94.6897,VALID,0,VALID,23.7212,VALID,348,VALID,0.502344,
2011-10-04, 01:33:04,VALID,1004.47,VALID,0,VALID,94.6591,VALID,0,VALID,23.7,VALID,348,VALID,0.498828,
2011-10-04, 01:34:04,VALID,1004.47,VALID,0,VALID,94.621,VALID,0,VALID,23.7017,VALID,348,VALID,0.494141,
2011-10-04, 01:35:04,VALID,1004.48,VALID,0,VALID,94.5676,VALID,0,VALID,23.6823,VALID,348,VALID,0.455078,
2011-10-04, 01:36:04,VALID,1004.54,VALID,0,VALID,94.5829,VALID,0,VALID,23.661,VALID,348,VALID,0.482031,
2011-10-04, 01:37:04,VALID,1004.52,VALID,0,VALID,94.6363,VALID,0,VALID,23.6416,VALID,348,VALID,0.323828,
2011-10-04, 01:38:04,VALID,1004.53,VALID,0,VALID,94.6744,VALID,0,VALID,23.6628,VALID,348,VALID,0.389844,
2011-10-04, 01:39:04,VALID,1004.52,VALID,0,VALID,94.7583,VALID,0,VALID,23.6628,VALID,348,VALID,0.430078,
2011-10-04, 01:40:04,VALID,1004.52,VALID,0,VALID,94.827,VALID,0,VALID,23.6628,VALID,348,VALID,0.532422,
2011-10-04, 01:41:04,VALID,1004.53,VALID,0,VALID,94.8651,VALID,0,VALID,23.6628,VALID,348,VALID,0.567187,
2011-10-04, 01:42:04,VALID,1004.49,VALID,0,VALID,94.8956,VALID,0,VALID,23.6416,VALID,348,VALID,0.511719,
2011-10-04, 01:43:04,VALID,1004.52,VALID,0,VALID,94.8422,VALID,0,VALID,23.6434,VALID,348,VALID,0.507031,
2011-10-04, 01:44:04,VALID,1004.5,VALID,0,VALID,94.7736,VALID,0.0815089,VALID,23.6026,VALID,348,VALID,0.318359,
2011-10-04, 01:45:04,VALID,1004.51,VALID,0,VALID,94.7583,VALID,0,VALID,23.6239,VALID,348,VALID,0.350781,
2011-10-04, 01:46:04,VALID,1004.5,VALID,0,VALID,94.766,VALID,0,VALID,23.5832,VALID,348,VALID,0.601172,
2011-10-04, 01:47:04,VALID,1004.51,VALID,0,VALID,94.8422,VALID,0,VALID,23.6044,VALID,348,VALID,0.529297,
2011-10-04, 01:48:04,VALID,1004.49,VALID,0,VALID,94.9414,VALID,0.0815089,VALID,23.6044,VALID,348,VALID,0.566797,
2011-10-04, 01:49:04,VALID,1004.5,VALID,0,VALID,94.9338,VALID,0.0815089,VALID,23.6044,VALID,349,VALID,0.616797,
2011-10-04, 01:50:04,VALID,1004.52,VALID,0,VALID,94.9338,VALID,0,VALID,23.585,VALID,349,VALID,0.516797,
2011-10-04, 01:51:04,VALID,1004.53,VALID,0,VALID,94.9414,VALID,0,VALID,23.5443,VALID,349,VALID,0.454297,
2011-10-04, 01:52:04,VALID,1004.54,VALID,0,VALID,94.9796,VALID,0,VALID,23.5443,VALID,349,VALID,0.429297,
2011-10-04, 01:53:04,VALID,1004.51,VALID,0,VALID,94.9872,VALID,0,VALID,23.546,VALID,349,VALID,0.369141,
2011-10-04, 01:54:04,VALID,1004.51,VALID,0,VALID,95.0482,VALID,0,VALID,23.5248,VALID,348,VALID,0.347266,
2011-10-04, 01:55:04,VALID,1004.52,VALID,0,VALID,95.1321,VALID,0.0815089,VALID,23.5443,VALID,349,VALID,0.313672,
2011-10-04, 01:56:04,VALID,1004.53,VALID,0,VALID,95.2008,VALID,0.0815089,VALID,23.585,VALID,349,VALID,0.319141,
2011-10-04, 01:57:04,VALID,1004.51,VALID,0,VALID,95.2695,VALID,0,VALID,23.5655,VALID,349,VALID,0.361328,
2011-10-04, 01:58:04,VALID,1004.49,VALID,0,VALID,95.3839,VALID,0,VALID,23.6044,VALID,349,VALID,0.478516,
2011-10-04, 01:59:04,VALID,1004.46,VALID,0,VALID,95.4144,VALID,0,VALID,23.6239,VALID,350,VALID,0.524609,
2011-10-04, 02:00:04,VALID,1004.41,VALID,0,VALID,95.3915,VALID,0,VALID,23.6026,VALID,350,VALID,0.323438,
2011-10-04, 02:01:04,VALID,1004.43,VALID,0,VALID,95.2618,VALID,0,VALID,23.6044,VALID,350,VALID,0.157422,
2011-10-04, 02:02:04,VALID,1004.42,VALID,0,VALID,95.2084,VALID,0,VALID,23.585,VALID,350,VALID,0.00195313,
2011-10-04, 02:03:04,VALID,1004.41,VALID,0,VALID,95.1932,VALID,0,VALID,23.5655,VALID,350,VALID,0,
2011-10-04, 02:04:04,VALID,1004.4,VALID,0,VALID,95.2695,VALID,0.0815089,VALID,23.585,VALID,350,VALID,0.207422,
2011-10-04, 02:05:04,VALID,1004.4,VALID,0,VALID,95.3763,VALID,0,VALID,23.5637,VALID,350,VALID,0.332812,
2011-10-04, 02:06:04,VALID,1004.42,VALID,0,VALID,95.4678,VALID,0,VALID,23.6239,VALID,350,VALID,0.310547,
2011-10-04, 02:07:04,VALID,1004.41,VALID,0,VALID,95.4373,VALID,0,VALID,23.6239,VALID,350,VALID,0.514844,
2011-10-04, 02:08:04,VALID,1004.41,VALID,0,VALID,95.2923,VALID,0.0815089,VALID,23.6239,VALID,350,VALID,0.528906,
2011-10-04, 02:09:04,VALID,1004.39,VALID,0,VALID,95.2161,VALID,0,VALID,23.6239,VALID,350,VALID,0.413281,
2011-10-04, 02:10:04,VALID,1004.4,VALID,0,VALID,95.2084,VALID,0,VALID,23.6026,VALID,350,VALID,0.369141,
2011-10-04, 02:11:04,VALID,1004.39,VALID,0,VALID,95.2237,VALID,0,VALID,23.6044,VALID,350,VALID,0.493359,
2011-10-04, 02:12:04,VALID,1004.39,VALID,0,VALID,95.2237,VALID,0.0815089,VALID,23.6044,VALID,350,VALID,0.415234,
2011-10-04, 02:13:04,VALID,1004.4,VALID,0,VALID,95.2695,VALID,0.0815089,VALID,23.585,VALID,350,VALID,0.416797,
2011-10-04, 02:14:04,VALID,1004.37,VALID,0,VALID,95.3305,VALID,0.0815089,VALID,23.5637,VALID,350,VALID,0.337891,
2011-10-04, 02:15:04,VALID,1004.37,VALID,0,VALID,95.3763,VALID,0,VALID,23.585,VALID,350,VALID,0.357031,
2011-10-04, 02:16:04,VALID,1004.34,VALID,0,VALID,95.3991,VALID,0,VALID,23.5832,VALID,350,VALID,0.287891,
2011-10-04, 02:17:04,VALID,1004.32,VALID,0,VALID,95.3457,VALID,0.0815089,VALID,23.5832,VALID,350,VALID,0.0640625,
2011-10-04, 02:18:04,VALID,1004.28,VALID,0,VALID,95.3076,VALID,0,VALID,23.585,VALID,350,VALID,0.00195313,
2011-10-04, 02:19:04,VALID,1004.27,VALID,0,VALID,95.361,VALID,0,VALID,23.5655,VALID,350,VALID,0.046875,
2011-10-04, 02:20:04,VALID,1004.26,VALID,0,VALID,95.4449,VALID,0,VALID,23.5655,VALID,350,VALID,0.0980469,
2011-10-04, 02:21:04,VALID,1004.2,VALID,0,VALID,95.5288,VALID,0,VALID,23.6044,VALID,350,VALID,0.168359,
2011-10-04, 02:22:04,VALID,1004.19,VALID,0,VALID,95.6433,VALID,0,VALID,23.6239,VALID,350,VALID,0.222266,
2011-10-04, 02:23:04,VALID,1004.22,VALID,0,VALID,95.6128,VALID,0,VALID,23.6434,VALID,350,VALID,0.248828,
2011-10-04, 02:24:04,VALID,1004.22,VALID,0,VALID,95.5441,VALID,0,VALID,23.6239,VALID,350,VALID,0.160156,
2011-10-04, 02:25:04,VALID,1004.22,VALID,0,VALID,95.5212,VALID,0,VALID,23.6434,VALID,350,VALID,0,
2011-10-04, 02:26:04,VALID,1004.21,VALID,0,VALID,95.4831,VALID,0,VALID,23.6044,VALID,350,VALID,0.178125,
2011-10-04, 02:27:04,VALID,1004.24,VALID,0,VALID,95.4449,VALID,0,VALID,23.6044,VALID,350,VALID,0.265625,
2011-10-04, 02:28:04,VALID,1004.25,VALID,0,VALID,95.3457,VALID,0,VALID,23.6044,VALID,350,VALID,0.354297,
2011-10-04, 02:29:04,VALID,1004.27,VALID,0,VALID,95.3915,VALID,0,VALID,23.6044,VALID,350,VALID,0.452344,
2011-10-04, 02:30:04,VALID,1004.26,VALID,0,VALID,95.5365,VALID,0,VALID,23.6239,VALID,350,VALID,0.611328,
2011-10-04, 02:31:04,VALID,1004.27,VALID,0,VALID,95.3152,VALID,0,VALID,23.5832,VALID,350,VALID,0.503125,
2011-10-04, 02:32:04,VALID,1004.28,VALID,0,VALID,95.1779,VALID,0,VALID,23.5655,VALID,350,VALID,0.514453,
2011-10-04, 02:33:04,VALID,1004.27,VALID,0,VALID,95.2466,VALID,0,VALID,23.546,VALID,350,VALID,0.371484,
2011-10-04, 02:34:04,VALID,1004.29,VALID,0,VALID,95.361,VALID,0,VALID,23.546,VALID,350,VALID,0.357812,
2011-10-04, 02:35:04,VALID,1004.29,VALID,0,VALID,95.5136,VALID,0,VALID,23.5443,VALID,350,VALID,0.363281,
2011-10-04, 02:36:04,VALID,1004.3,VALID,0,VALID,95.5594,VALID,0,VALID,23.585,VALID,350,VALID,0.428516,
2011-10-04, 02:37:04,VALID,1004.31,VALID,0,VALID,95.4983,VALID,0,VALID,23.585,VALID,350,VALID,0.469531,
2011-10-04, 02:38:04,VALID,1004.31,VALID,0,VALID,95.3305,VALID,0,VALID,23.5655,VALID,350,VALID,0.442187,
2011-10-04, 02:39:04,VALID,1004.31,VALID,0,VALID,95.2847,VALID,0,VALID,23.546,VALID,350,VALID,0.524609,
2011-10-04, 02:40:04,VALID,1004.3,VALID,0,VALID,95.3305,VALID,0,VALID,23.546,VALID,350,VALID,0.579687,
2011-10-04, 02:41:04,VALID,1004.31,VALID,0,VALID,95.4907,VALID,0,VALID,23.5655,VALID,350,VALID,0.564844,
2011-10-04, 02:42:04,VALID,1004.3,VALID,0,VALID,95.6814,VALID,0,VALID,23.6239,VALID,337,VALID,0.582031,
2011-10-04, 02:43:04,VALID,1004.33,VALID,0,VALID,95.6814,VALID,0,VALID,23.6434,VALID,341,VALID,0.591406,
2011-10-04, 02:44:04,VALID,1004.34,VALID,0,VALID,95.5899,VALID,0,VALID,23.6434,VALID,344,VALID,0.725,
2011-10-04, 02:45:04,VALID,1004.3,VALID,0,VALID,95.5441,VALID,0,VALID,23.6416,VALID,350,VALID,0.688281,
2011-10-04, 02:46:04,VALID,1004.32,VALID,0,VALID,95.5365,VALID,0,VALID,23.6823,VALID,352,VALID,0.598437,
2011-10-04, 02:47:04,VALID,1004.31,VALID,0,VALID,95.5212,VALID,0,VALID,23.7017,VALID,352,VALID,0.613281,
2011-10-04, 02:48:04,VALID,1004.3,VALID,0,VALID,95.4144,VALID,0,VALID,23.7212,VALID,352,VALID,0.569531,
2011-10-04, 02:49:04,VALID,1004.33,VALID,0,VALID,95.2695,VALID,0,VALID,23.7,VALID,352,VALID,0.660937,
2011-10-04, 02:50:04,VALID,1004.3,VALID,0,VALID,95.2084,VALID,0,VALID,23.7017,VALID,352,VALID,0.619531,
2011-10-04, 02:51:04,VALID,1004.33,VALID,0,VALID,95.1703,VALID,0,VALID,23.7017,VALID,352,VALID,0.782031,
2011-10-04, 02:52:04,VALID,1004.3,VALID,0,VALID,95.1093,VALID,0,VALID,23.7017,VALID,352,VALID,0.682422,
2011-10-04, 02:53:04,VALID,1004.31,VALID,0,VALID,95.1016,VALID,0,VALID,23.7017,VALID,352,VALID,0.706641,
2011-10-04, 02:54:04,VALID,1004.3,VALID,0,VALID,95.0177,VALID,0,VALID,23.6823,VALID,351,VALID,0.846875,
2011-10-04, 02:55:04,VALID,1004.27,VALID,0,VALID,95.0558,VALID,0,VALID,23.6628,VALID,351,VALID,0.701953,
2011-10-04, 02:56:04,VALID,1004.27,VALID,0,VALID,95.0635,VALID,0,VALID,23.6628,VALID,350,VALID,0.600781,
2011-10-04, 02:57:04,VALID,1004.25,VALID,0,VALID,95.0558,VALID,0,VALID,23.6239,VALID,350,VALID,0.535547,
2011-10-04, 02:58:04,VALID,1004.27,VALID,0,VALID,95.094,VALID,0,VALID,23.6452,VALID,350,VALID,0.441406,
2011-10-04, 02:59:04,VALID,1004.24,VALID,0,VALID,95.1627,VALID,0,VALID,23.6239,VALID,350,VALID,0.45,
2011-10-04, 03:00:04,VALID,1004.25,VALID,0,VALID,95.2389,VALID,0,VALID,23.6434,VALID,350,VALID,0.544922,
2011-10-04, 03:01:04,VALID,1004.25,VALID,0,VALID,95.2695,VALID,0,VALID,23.6434,VALID,350,VALID,0.479297,
2011-10-04, 03:02:04,VALID,1004.27,VALID,0,VALID,95.3305,VALID,0,VALID,23.6221,VALID,350,VALID,0.403906,
2011-10-04, 03:03:04,VALID,1004.27,VALID,0,VALID,95.3152,VALID,0,VALID,23.6434,VALID,350,VALID,0.433594,
2011-10-04, 03:04:04,VALID,1004.29,VALID,0,VALID,95.2923,VALID,0,VALID,23.6434,VALID,350,VALID,0.439063,
2011-10-04, 03:05:04,VALID,1004.27,VALID,0,VALID,95.2313,VALID,0,VALID,23.6239,VALID,350,VALID,0.444141,
2011-10-04, 03:06:04,VALID,1004.31,VALID,0,VALID,95.2389,VALID,0,VALID,23.6239,VALID,350,VALID,0.425391,
2011-10-04, 03:07:04,VALID,1004.27,VALID,0,VALID,95.2542,VALID,0,VALID,23.6239,VALID,350,VALID,0.38125,
2011-10-04, 03:08:04,VALID,1004.28,VALID,0,VALID,95.2847,VALID,0,VALID,23.5832,VALID,350,VALID,0.466797,
2011-10-04, 03:09:04,VALID,1004.31,VALID,0,VALID,95.3076,VALID,0,VALID,23.6257,VALID,350,VALID,0.441406,
2011-10-04, 03:10:04,VALID,1004.3,VALID,0,VALID,95.3686,VALID,0,VALID,23.6239,VALID,350,VALID,0.465234,
2011-10-04, 03:11:04,VALID,1004.3,VALID,0,VALID,95.3534,VALID,0,VALID,23.6239,VALID,350,VALID,0.411719,
2011-10-04, 03:12:04,VALID,1004.3,VALID,0,VALID,95.3381,VALID,0,VALID,23.6026,VALID,350,VALID,0.541406,
2011-10-04, 03:13:04,VALID,1004.31,VALID,0,VALID,95.3381,VALID,0,VALID,23.6257,VALID,350,VALID,0.557813,
2011-10-04, 03:14:04,VALID,1004.31,VALID,0,VALID,95.2695,VALID,0.0815089,VALID,23.585,VALID,350,VALID,0.537891,
2011-10-04, 03:15:04,VALID,1004.33,VALID,0,VALID,95.1703,VALID,0,VALID,23.5655,VALID,350,VALID,0.600781,
2011-10-04, 03:16:04,VALID,1004.34,VALID,0,VALID,95.2008,VALID,0,VALID,23.5655,VALID,350,VALID,0.588672,
2011-10-04, 03:17:04,VALID,1004.33,VALID,0,VALID,95.3076,VALID,0,VALID,23.546,VALID,350,VALID,0.667969,
2011-10-04, 03:18:04,VALID,1004.32,VALID,0,VALID,95.5365,VALID,0,VALID,23.585,VALID,350,VALID,0.737891,
2011-10-04, 03:19:04,VALID,1004.3,VALID,0,VALID,95.5822,VALID,0,VALID,23.585,VALID,349,VALID,0.648438,
2011-10-04, 03:20:04,VALID,1004.3,VALID,0,VALID,95.5975,VALID,0,VALID,23.6044,VALID,350,VALID,0.684766,
2011-10-04, 03:21:04,VALID,1004.3,VALID,0,VALID,95.4907,VALID,0,VALID,23.6239,VALID,350,VALID,0.718359,
2011-10-04, 03:22:04,VALID,1004.27,VALID,0,VALID,95.4068,VALID,0,VALID,23.5832,VALID,347,VALID,0.705078,
2011-10-04, 03:23:04,VALID,1004.3,VALID,0,VALID,95.3915,VALID,0,VALID,23.6044,VALID,347,VALID,0.725391,
2011-10-04, 03:24:04,VALID,1004.28,VALID,0,VALID,95.2923,VALID,0,VALID,23.6044,VALID,349,VALID,0.662109,
2011-10-04, 03:25:04,VALID,1004.29,VALID,0,VALID,95.4602,VALID,0,VALID,23.6044,VALID,347,VALID,0.667578,
2011-10-04, 03:26:04,VALID,1004.31,VALID,0,VALID,95.4754,VALID,0,VALID,23.6434,VALID,346,VALID,0.562109,
2011-10-04, 03:27:04,VALID,1004.28,VALID,0,VALID,95.3152,VALID,0,VALID,23.6239,VALID,352,VALID,0.677344,
2011-10-04, 03:28:04,VALID,1004.3,VALID,0,VALID,95.2695,VALID,0,VALID,23.6239,VALID,349,VALID,0.616016,
2011-10-04, 03:29:04,VALID,1004.28,VALID,0,VALID,95.2389,VALID,0.0815089,VALID,23.6239,VALID,348,VALID,0.489062,
2011-10-04, 03:30:04,VALID,1004.3,VALID,0,VALID,95.155,VALID,0,VALID,23.6044,VALID,348,VALID,0.568359,
2011-10-04, 03:31:04,VALID,1004.32,VALID,0,VALID,95.1398,VALID,0,VALID,23.585,VALID,347,VALID,0.596875,
2011-10-04, 03:32:04,VALID,1004.33,VALID,0,VALID,95.361,VALID,0,VALID,23.5832,VALID,347,VALID,0.572266,
2011-10-04, 03:33:04,VALID,1004.34,VALID,0,VALID,95.5288,VALID,0,VALID,23.6416,VALID,348,VALID,0.670703,
2011-10-04, 03:34:04,VALID,1004.35,VALID,0,VALID,95.506,VALID,0,VALID,23.7017,VALID,350,VALID,0.692969,
2011-10-04, 03:35:04,VALID,1004.38,VALID,0,VALID,95.361,VALID,0,VALID,23.7017,VALID,348,VALID,0.673047,
2011-10-04, 03:36:04,VALID,1004.37,VALID,0,VALID,95.0711,VALID,0,VALID,23.6841,VALID,348,VALID,0.634375,
2011-10-04, 03:37:04,VALID,1004.39,VALID,0,VALID,94.949,VALID,0,VALID,23.6434,VALID,348,VALID,0.619922,
2011-10-04, 03:38:04,VALID,1004.4,VALID,0,VALID,94.8499,VALID,0,VALID,23.6239,VALID,348,VALID,0.6625,
2011-10-04, 03:39:04,VALID,1004.41,VALID,0,VALID,94.827,VALID,0,VALID,23.6044,VALID,348,VALID,0.58125,
2011-10-04, 03:40:04,VALID,1004.4,VALID,0,VALID,94.8194,VALID,0,VALID,23.5655,VALID,348,VALID,0.643359,
2011-10-04, 03:41:04,VALID,1004.4,VALID,0,VALID,94.8346,VALID,0,VALID,23.546,VALID,348,VALID,0.574609,
2011-10-04, 03:42:04,VALID,1004.4,VALID,0,VALID,94.9262,VALID,0,VALID,23.5071,VALID,348,VALID,0.557813,